Location: Boiro
(42.6475°N, 8.8834°W)
Time: 12:10:47
(UTC+01:00)

Altair - Pass Details

Date: 08 December 2021
Orbit: 1501 x 1683 km, 47.2° (Epoch: 17 January)

Event Time Altitude Azimuth Distance (km) Brightness Sun altitude
Rises 18:42:45 0° 274° (W) 4,761 11.3 -7.5°
Reaches altitude 10° 18:45:55 10° 277° (W) 3,753 10.6 -8.0°
Maximum altitude 18:55:20 67° 0° (N) 1,637 7.6 -9.6°
Enters shadow 19:03:57 12° 82° (E) 3,486 8.7 -11.1°
